FENGYUN 1C DEB

Satellite information

Favourite Embed

Satellite Type and Status

DEBRISIN ORBIT

Key statistics

Satellite FENGYUN 1C DEB at a glance.

Uptime

9659

Days in orbit

Revolutions

≈ 14.4

Per day

Orbit

SSO

Sun Synchronous Orbit

Inclination

98.9

Latest

Satellite identification and parameters

Extended collection of information and parameters for FENGYUN 1C DEB.

Object identification

Identified? True

Debris? True

Object name: FENGYUN 1C DEB

International designator: 1999-025BKP

Object number (NORAD): 31209

Object ID (CCSDS): 31209

Country: PEOPLES REPUBLIC OF CHINA (PRC)

Current information (Y/N): Y

RCS size: SMALL

Orbital parameters

Period: 99.859 minutes

Inclination: 98.8858 deg

SMA: 7129.923 km

Apoapsis: 770.285 km

Periapsis: 733.292 km

RAAN: 23.7518 deg

Eccentricy: 0.0025942

Argument of periapsis: 154.4532 deg

Mean anomaly: 205.7945 deg

Mean motion: 14.42033941 rev/day

Mean motion (dot): 0.00016394 rev/day2

B* drag term: 0.0049765034 1/REarth

Two-line elements (TLE)

Creation date: Oct. 18, 2025, 10:30 a.m.

Reference frame: TEME

Reference center: EARTH

Epoch: Oct. 18, 2025, 12:01 a.m. UTC

TLE line 0: 0 FENGYUN 1C DEB

TLE line 1: 1 31209U 99025BKP 25291.00138431 .00016394 00000-0 49765-2 0 9995

TLE line 2: 2 31209 98.8858 23.7518 0025942 154.4532 205.7945 14.42033941640042

Live tracking on map

Real-time ground track for satellite FENGYUN 1C DEB.

In-orbit conjunctions

A list of the most updated potential collisions computed for object FENGYUN 1C DEB.

Target Orbit TCA Probability of collision Miss distance Type
IRIDIUM 63 LEO 2025-07-01 04:00:16 0.0006950139 178.0 (m) PAYLOAD
COSMOS 1680 LEO 2025-04-18 13:28:35 0.0002154762 303.0 (m) PAYLOAD
NOAA 16 DEB SSO 2024-11-15 23:06:12 0.0001265903 132.0 (m) DEBRIS
CZ-6A DEB LEO 2024-11-14 06:07:13 0.000106854 549.0 (m) DEBRIS
FENGYUN 1C DEB SSO 2024-11-10 14:51:38 0.0003637798 284.0 (m) DEBRIS

Associated space launch

Chinese polar orbiting meteorological satellite

FENGYUN 1C DEB was lifted into orbit during the mission ‘Long March 4B | Feng Yun 1C’, on board a Long March 4B space rocket.

The launch took place on May 10, 1999, 1:33 a.m. from Launch Complex 7.

For more information about the launch, click the button.

Launch to space Long March 4B | Feng Yun 1C
Long March 4B | Feng Yun 1C

Agency: N/A

Status: Launch Successful

Launch date: May 10, 1999, 1:33 a.m. UTC

Rocket: Long March 4B

Launch pad: Launch Complex 7

Location: Taiyuan Satellite Launch Center, People's Republic of China

...

Latest news about this satellite

There are no fresh news available about this satellite. Check back as we update our databases every day.


Newsletter sign-up

Weekly statistics, charts and insights to help you stay on top of the space industry.